Regional Weather Roundup
Issued by NWS

Home | Current Version | Previous Version | Graphics & Text | Print | Product List | Glossary On
Versions: 1 2 3 4 5 6 7 8 9 10 11 12 13 14 15 16 17 18 19 20 21 22 23 24 25 26 27
000
ASUS45 KCYS 140910
RWRWY

WYOMING REGIONAL WEATHER ROUNDUP
NATIONAL WEATHER SERVICE CHEYENNE WY
200 AM MST THU DEC 14 2017

NOTE:  "FAIR" INDICATES FEW OR NO CLOUDS BELOW 12,000 FEET
WITH NO SIGNIFICANT WEATHER AND/OR OBSTRUCTIONS TO VISIBILITY.

WYZ001-141000-
YELLOWSTONE NATIONAL PARK

CITY           SKY/WX    TMP DP  RH WIND       PRES   REMARKS
LK YELLOWSTONE   N/A      8   5  87 CALM      30.34R
W YELLOWSTONE  NOT AVBL

$$
WYZ002>013-054>058-071-098>099-141000-
NORTHERN WYOMING

CITY           SKY/WX    TMP DP  RH WIND       PRES   REMARKS
JACKSON        FAIR      16  14  92 N5          N/A  WCI   9
CODY           FAIR      24  22  91 MISG      30.28R
GREYBULL       FAIR      32  26  78 NW10      30.25R WCI  24
WORLAND        CLOUDY    28  26  92 S3        30.25S
SHERIDAN       CLOUDY    40  22  48 NW24G30   30.20R WCI  29
BUFFALO        CLOUDY    39  17  41 NW23G37   30.17R WCI  28
GILLETTE       CLOUDY    36  24  62 NW18G29   30.13F WCI  26
HULETT         CLOUDY    34  27  75 W9        30.10S WCI  26
NEWCASTLE      FLURRIES  32  23  69 NW8       30.12S WCI  25

$$
WYZ014>020-022>026-101>103-141000-
CENTRAL WYOMING

CITY           SKY/WX    TMP DP  RH WIND       PRES   REMARKS
BIG PINEY      FAIR      15  12  88 S3        30.24S
PINEDALE       FAIR      10  10 100 CALM      30.24R
DUBOIS         FAIR      18  14  86 NW7       30.22S WCI   8
LANDER         FAIR      25  19  78 W9        30.24S WCI  15
RIVERTON       FAIR      23  21  92 NW12      30.25S WCI  12
CASPER         CLOUDY    27  25  92 W5        30.20S WCI  22
DOUGLAS        CLOUDY    32  27  81 W12       30.18S WCI  23

$$
WYZ021-027>030-104>119-141000-
SOUTHERN WYOMING

CITY           SKY/WX    TMP DP  RH WIND       PRES   REMARKS
EVANSTON       CLOUDY    24  21  88 N8        30.25S WCI  15
FORT BRIDGER   CLOUDY    28  24  85 W5        30.28S WCI  23
ROCK SPRINGS   FAIR      23  19  85 NE7       30.24S WCI  15
DIXON          PTSUNNY   29  22  72 NE15      30.19R WCI  18
RAWLINS        CLOUDY    26  23  88 NW5       30.20F WCI  20
SARATOGA       CLOUDY    27  25  93 NW7       30.19R WCI  19
LARAMIE        LGT SNOW  21  20  96 N8        30.15R FOG     WCI  11
CHEYENNE       CLOUDY    27  24  89 N15       30.14S WCI  15
TORRINGTON     CLOUDY    35  20  54 NW9       30.15S WCI  28
PINE BLUFFS    CLOUDY    30  25  80 MISG      30.15R

$$




USA.gov is the U.S. government's official web portal to all federal, state and local government web resources and services.